SRG336A EGCK-EGCK

Flight info

Callsign SRG336A
Flight time N/A
Altitude 4800
Route OAT
Aircraft A139/L-V/N

Departure

Time 2026-04-26 19:19
Airport Caernarfon Airport (EGCK)

Arrival

Time N/A
Airport Caernarfon Airport (EGCK)
Time Latitude Longitude Altitude Speed Heading
2026-04-26 19:16 53.10114 -4.33535 14 ft 0 kts 24°
2026-04-26 19:18 53.10119 -4.33533 24 ft 2 kts 25°
2026-04-26 19:18 53.10113 -4.33530 189 ft 9 kts 25°
2026-04-26 19:18 53.10183 -4.33442 367 ft 50 kts 51°
2026-04-26 19:18 53.10619 -4.32682 394 ft 117 kts 49°
2026-04-26 19:19 53.11188 -4.31642 695 ft 123 kts 49°
2026-04-26 19:19 53.11748 -4.30576 1044 ft 119 kts 50°
2026-04-26 19:19 53.12285 -4.29536 1286 ft 119 kts 50°
2026-04-26 19:19 53.12834 -4.28480 1531 ft 120 kts 50°
2026-04-26 19:20 53.13221 -4.27266 1744 ft 123 kts 81°
2026-04-26 19:20 53.13289 -4.26314 1898 ft 126 kts 85°
2026-04-26 19:20 53.13428 -4.24335 2229 ft 130 kts 85°
2026-04-26 19:20 53.13528 -4.22820 2486 ft 131 kts 85°
2026-04-26 19:21 53.13627 -4.21310 2736 ft 132 kts 85°
2026-04-26 19:21 53.13731 -4.19789 2984 ft 133 kts 85°
2026-04-26 19:21 53.13839 -4.18240 3238 ft 133 kts 85°
2026-04-26 19:21 53.13944 -4.16731 3485 ft 133 kts 85°
2026-04-26 19:22 53.14055 -4.15187 3723 ft 135 kts 85°
2026-04-26 19:22 53.14172 -4.13605 3977 ft 136 kts 85°
2026-04-26 19:22 53.14290 -4.12037 4228 ft 137 kts 85°
2026-04-26 19:22 53.14412 -4.10459 4473 ft 138 kts 85°
2026-04-26 19:23 53.14536 -4.08869 4721 ft 139 kts 85°
2026-04-26 19:23 53.14666 -4.07260 4945 ft 140 kts 85°
2026-04-26 19:23 53.14813 -4.05664 4982 ft 139 kts 84°
2026-04-26 19:23 53.14939 -4.04074 4959 ft 139 kts 84°
2026-04-26 19:24 53.15065 -4.02466 4936 ft 140 kts 84°
2026-04-26 19:24 53.15189 -4.00854 4955 ft 137 kts 84°
2026-04-26 19:24 53.15413 -3.98013 4775 ft 133 kts 88°
2026-04-26 19:25 53.15374 -3.96341 4829 ft 156 kts 90°
2026-04-26 19:25 53.15356 -3.95717 4872 ft 158 kts 89°
2026-04-26 19:25 53.15299 -3.92614 4960 ft 161 kts 89°
2026-04-26 19:25 53.15286 -3.90750 4959 ft 161 kts 89°
2026-04-26 19:26 53.15290 -3.88887 4940 ft 161 kts 89°
2026-04-26 19:26 53.15305 -3.87014 4923 ft 161 kts 89°
2026-04-26 19:26 53.15332 -3.85152 4913 ft 161 kts 89°
2026-04-26 19:26 53.15371 -3.83298 4912 ft 161 kts 89°
2026-04-26 19:27 53.15420 -3.81426 4916 ft 161 kts 89°
2026-04-26 19:27 53.15471 -3.79541 4868 ft 165 kts 89°
2026-04-26 19:27 53.15523 -3.77610 4877 ft 167 kts 89°
2026-04-26 19:27 53.15577 -3.75679 4905 ft 166 kts 90°
2026-04-26 19:28 53.15602 -3.73771 4919 ft 166 kts 90°
2026-04-26 19:28 53.15621 -3.71843 4920 ft 166 kts 90°
2026-04-26 19:28 53.15638 -3.69928 4918 ft 166 kts 90°
2026-04-26 19:28 53.15654 -3.68003 4913 ft 166 kts 90°
2026-04-26 19:29 53.15699 -3.66037 4908 ft 166 kts 89°
2026-04-26 19:29 53.15736 -3.64132 4901 ft 166 kts 90°
2026-04-26 19:29 53.15768 -3.62221 4902 ft 166 kts 90°
2026-04-26 19:29 53.15802 -3.60301 4885 ft 166 kts 90°
2026-04-26 19:30 53.15836 -3.58376 4871 ft 166 kts 90°
2026-04-26 19:30 53.15867 -3.56429 4861 ft 166 kts 90°
2026-04-26 19:30 53.15898 -3.54529 4850 ft 165 kts 89°
2026-04-26 19:30 53.15917 -3.53239 4846 ft 165 kts 89°
2026-04-26 19:31 53.15955 -3.50698 4841 ft 165 kts 89°
2026-04-26 19:31 53.15984 -3.48772 4845 ft 165 kts 89°
2026-04-26 19:31 53.16011 -3.46851 4850 ft 165 kts 90°
2026-04-26 19:31 53.16037 -3.44937 4859 ft 165 kts 89°
2026-04-26 19:32 53.16061 -3.43028 4859 ft 165 kts 90°
2026-04-26 19:32 53.16085 -3.41116 4853 ft 165 kts 89°
2026-04-26 19:32 53.16107 -3.39203 4847 ft 166 kts 90°
2026-04-26 19:32 53.16122 -3.37269 4873 ft 165 kts 92°
2026-04-26 19:33 53.15686 -3.35552 4873 ft 162 kts 125°
2026-04-26 19:33 53.15053 -3.34014 4798 ft 161 kts 125°
2026-04-26 19:33 53.14396 -3.32461 4613 ft 161 kts 125°
2026-04-26 19:33 53.13757 -3.30961 4428 ft 160 kts 125°
2026-04-26 19:34 53.13105 -3.29446 4238 ft 160 kts 125°
2026-04-26 19:34 53.12456 -3.27950 4050 ft 159 kts 125°
2026-04-26 19:34 53.11816 -3.26415 3920 ft 160 kts 126°
2026-04-26 19:34 53.11174 -3.24896 3832 ft 160 kts 125°
2026-04-26 19:35 53.10519 -3.23405 3683 ft 156 kts 125°
2026-04-26 19:35 53.09896 -3.22013 3581 ft 145 kts 125°
2026-04-26 19:35 53.09304 -3.20719 3429 ft 134 kts 125°
2026-04-26 19:35 53.08755 -3.19519 3208 ft 129 kts 125°
2026-04-26 19:36 53.08245 -3.18292 2985 ft 126 kts 110°
2026-04-26 19:36 53.08181 -3.17345 2830 ft 127 kts 82°
2026-04-26 19:36 53.08324 -3.15411 2571 ft 123 kts 79°
2026-04-26 19:36 53.08422 -3.14001 2358 ft 122 kts 79°
2026-04-26 19:37 53.08556 -3.12611 2246 ft 121 kts 81°
2026-04-26 19:37 53.08701 -3.11216 2261 ft 121 kts 80°
2026-04-26 19:37 53.09060 -3.09977 2250 ft 118 kts 44°
2026-04-26 19:37 53.09665 -3.09168 2267 ft 108 kts 36°
2026-04-26 19:38 53.10204 -3.08341 2102 ft 105 kts 44°
2026-04-26 19:38 53.10749 -3.07511 1975 ft 104 kts 40°
2026-04-26 19:38 53.11339 -3.06804 1994 ft 103 kts 37°
2026-04-26 19:38 53.11914 -3.06083 1886 ft 102 kts 40°
2026-04-26 19:39 53.12438 -3.05278 1587 ft 103 kts 39°
2026-04-26 19:39 53.12963 -3.04485 1253 ft 103 kts 38°
2026-04-26 19:39 53.13506 -3.03690 992 ft 102 kts 37°
2026-04-26 19:39 53.13977 -3.02821 866 ft 108 kts 59°
2026-04-26 19:40 53.14015 -3.01383 846 ft 141 kts 97°
2026-04-26 19:40 53.13345 -3.00060 910 ft 162 kts 143°
2026-04-26 19:40 53.12254 -2.99871 1054 ft 153 kts 183°
2026-04-26 19:40 53.11223 -3.00046 954 ft 151 kts 182°
2026-04-26 19:41 53.10148 -3.00172 1003 ft 155 kts 183°
2026-04-26 19:41 53.09072 -3.00279 1213 ft 153 kts 183°
2026-04-26 19:41 53.07990 -3.00405 1384 ft 154 kts 179°
2026-04-26 19:41 53.07278 -3.00560 1432 ft 154 kts 176°
2026-04-26 19:42 53.05844 -3.00700 1412 ft 155 kts 182°
2026-04-26 19:42 53.04838 -3.01239 1383 ft 156 kts 218°
2026-04-26 19:42 53.04113 -3.02577 1418 ft 154 kts 231°
2026-04-26 19:42 53.03420 -3.03937 1408 ft 154 kts 230°
2026-04-26 19:43 53.02720 -3.05305 1404 ft 155 kts 230°
2026-04-26 19:43 53.02000 -3.06686 1487 ft 156 kts 231°
2026-04-26 19:43 53.01303 -3.08034 1616 ft 155 kts 231°
2026-04-26 19:43 53.00591 -3.09406 1741 ft 155 kts 231°
2026-04-26 19:44 52.99878 -3.10787 1856 ft 155 kts 231°
2026-04-26 19:44 52.99194 -3.12175 1918 ft 155 kts 232°
2026-04-26 19:44 52.98499 -3.13541 2014 ft 155 kts 231°
2026-04-26 19:44 52.97792 -3.14925 2109 ft 155 kts 231°
2026-04-26 19:45 52.97098 -3.16300 2180 ft 155 kts 230°
2026-04-26 19:45 52.96395 -3.17715 2202 ft 156 kts 231°
2026-04-26 19:45 52.95701 -3.19107 2154 ft 155 kts 230°
2026-04-26 19:45 52.95016 -3.20492 2105 ft 155 kts 231°
2026-04-26 19:46 52.94329 -3.21869 2079 ft 155 kts 231°
2026-04-26 19:46 52.93622 -3.23282 2045 ft 158 kts 231°
2026-04-26 19:46 52.92905 -3.24705 2059 ft 160 kts 231°
2026-04-26 19:46 52.92192 -3.26111 2099 ft 159 kts 231°
2026-04-26 19:47 52.91478 -3.27515 2121 ft 158 kts 231°
2026-04-26 19:47 52.91001 -3.28458 2118 ft 157 kts 231°
2026-04-26 19:47 52.90057 -3.30268 2229 ft 151 kts 231°
2026-04-26 19:47 52.89357 -3.31563 2364 ft 150 kts 231°
2026-04-26 19:48 52.88676 -3.32800 2609 ft 148 kts 232°
2026-04-26 19:48 52.88026 -3.34112 2739 ft 142 kts 234°
2026-04-26 19:48 52.87447 -3.35353 2683 ft 133 kts 234°
2026-04-26 19:48 52.86912 -3.36581 2628 ft 127 kts 233°
2026-04-26 19:49 52.86353 -3.37713 2404 ft 126 kts 223°
2026-04-26 19:49 52.85631 -3.37547 2070 ft 113 kts 86°
2026-04-26 19:49 52.85979 -3.37110 2082 ft 66 kts 335°
2026-04-26 19:49 52.86369 -3.37534 2162 ft 67 kts 326°
2026-04-26 19:50 52.86795 -3.37855 2264 ft 65 kts 342°
2026-04-26 19:50 52.87205 -3.38154 2399 ft 64 kts 338°
2026-04-26 19:50 52.87618 -3.38055 2497 ft 74 kts 57°
2026-04-26 19:50 52.87390 -3.37480 2595 ft 63 kts 193°
2026-04-26 19:51 52.87265 -3.38018 2495 ft 62 kts 298°
2026-04-26 19:51 52.87632 -3.37942 2486 ft 66 kts 70°
2026-04-26 19:51 52.87645 -3.37854 2488 ft 66 kts 85°
2026-04-26 19:51 52.87647 -3.37791 2489 ft 66 kts 95°
2026-04-26 19:52 52.87293 -3.37395 2520 ft 65 kts 194°
2026-04-26 19:52 52.86855 -3.37538 2506 ft 63 kts 192°
2026-04-26 19:52 52.86420 -3.37666 2490 ft 63 kts 189°
2026-04-26 19:52 52.86089 -3.37293 2471 ft 63 kts 91°
2026-04-26 19:53 52.86402 -3.36960 2461 ft 64 kts 333°
2026-04-26 19:53 52.86489 -3.37616 2475 ft 64 kts 245°
2026-04-26 19:53 52.86537 -3.38307 2474 ft 67 kts 329°
2026-04-26 19:53 52.86851 -3.38018 2479 ft 62 kts 94°
2026-04-26 19:54 52.86526 -3.37755 2445 ft 64 kts 220°
2026-04-26 19:54 52.86585 -3.38336 2464 ft 63 kts 345°
2026-04-26 19:54 52.86932 -3.37970 2484 ft 66 kts 63°
2026-04-26 19:54 52.86858 -3.37265 2507 ft 64 kts 136°
2026-04-26 19:55 52.86444 -3.37100 2491 ft 65 kts 198°
2026-04-26 19:55 52.86270 -3.37654 2486 ft 59 kts 293°
2026-04-26 19:55 52.86493 -3.37900 2454 ft 62 kts 359°
2026-04-26 19:55 52.86697 -3.37389 2448 ft 64 kts 121°
2026-04-26 19:56 52.86317 -3.37268 2496 ft 60 kts 215°
2026-04-26 19:56 52.85906 -3.37400 2494 ft 65 kts 153°
2026-04-26 19:56 52.85737 -3.36774 2521 ft 63 kts 85°
2026-04-26 19:56 52.85778 -3.36197 2512 ft 64 kts 85°
2026-04-26 19:57 52.85804 -3.35798 2499 ft 65 kts 85°
2026-04-26 19:57 52.85613 -3.35168 2459 ft 70 kts 170°
2026-04-26 19:57 52.85354 -3.35654 2489 ft 64 kts 290°
2026-04-26 19:57 52.85558 -3.36292 2502 ft 65 kts 291°
2026-04-26 19:58 52.85340 -3.36867 2506 ft 67 kts 188°
2026-04-26 19:58 52.85038 -3.36417 2512 ft 65 kts 83°
2026-04-26 19:58 52.85349 -3.36241 2492 ft 56 kts 302°
2026-04-26 19:58 52.85144 -3.36693 2509 ft 66 kts 186°
2026-04-26 19:59 52.84807 -3.36336 2601 ft 60 kts 112°
2026-04-26 19:59 52.84912 -3.35667 2593 ft 69 kts 40°
2026-04-26 19:59 52.85316 -3.35723 2668 ft 65 kts 295°
2026-04-26 19:59 52.85255 -3.36429 2683 ft 63 kts 248°
2026-04-26 20:00 52.85018 -3.37045 2660 ft 63 kts 228°
2026-04-26 20:00 52.84750 -3.37622 2613 ft 66 kts 261°
2026-04-26 20:00 52.85009 -3.38147 2625 ft 64 kts 353°
2026-04-26 20:00 52.85464 -3.38129 2633 ft 65 kts
2026-04-26 20:01 52.85908 -3.37974 2623 ft 69 kts 34°
2026-04-26 20:01 52.85797 -3.37334 2610 ft 70 kts 153°
2026-04-26 20:01 52.85344 -3.37368 2661 ft 62 kts 183°
2026-04-26 20:01 52.84913 -3.37415 2620 ft 62 kts 186°
2026-04-26 20:02 52.84557 -3.37780 2601 ft 62 kts 249°
2026-04-26 20:02 52.84716 -3.38379 2587 ft 63 kts 334°
2026-04-26 20:02 52.85159 -3.38376 2603 ft 64 kts
2026-04-26 20:02 52.85459 -3.38362 2622 ft 63 kts
2026-04-26 20:03 52.85849 -3.37875 2599 ft 65 kts 118°
2026-04-26 20:03 52.85531 -3.37928 2589 ft 59 kts 265°
2026-04-26 20:03 52.85834 -3.38247 2599 ft 63 kts 12°
2026-04-26 20:03 52.86058 -3.37680 2628 ft 65 kts 107°
2026-04-26 20:04 52.85709 -3.37360 2639 ft 62 kts 197°
2026-04-26 20:04 52.85381 -3.37801 2644 ft 62 kts 241°
2026-04-26 20:04 52.85004 -3.38097 2639 ft 63 kts 163°
2026-04-26 20:04 52.85012 -3.37560 2595 ft 64 kts 17°
2026-04-26 20:05 52.85323 -3.37966 2632 ft 61 kts 272°
2026-04-26 20:05 52.85047 -3.38412 2615 ft 65 kts 184°
2026-04-26 20:05 52.84770 -3.37909 2645 ft 64 kts 85°
2026-04-26 20:05 52.85085 -3.37568 2627 ft 73 kts 347°
2026-04-26 20:06 52.85647 -3.38211 2666 ft 118 kts 324°
2026-04-26 20:06 52.86376 -3.39059 2768 ft 128 kts 320°
2026-04-26 20:06 52.86920 -3.39894 2837 ft 85 kts 316°
2026-04-26 20:06 52.87255 -3.40575 2720 ft 74 kts 297°
2026-04-26 20:07 52.87025 -3.41105 2746 ft 66 kts 168°
2026-04-26 20:07 52.86837 -3.40441 2633 ft 74 kts 128°
2026-04-26 20:07 52.86518 -3.39912 2562 ft 70 kts 196°
2026-04-26 20:07 52.86126 -3.40398 2605 ft 79 kts 251°
2026-04-26 20:08 52.86484 -3.40849 2616 ft 71 kts 33°
2026-04-26 20:08 52.86478 -3.40207 2502 ft 66 kts 143°
2026-04-26 20:08 52.86091 -3.39757 2478 ft 71 kts 121°
2026-04-26 20:08 52.86239 -3.39137 2487 ft 67 kts
2026-04-26 20:09 52.86450 -3.39653 2474 ft 67 kts 239°
2026-04-26 20:09 52.86020 -3.39845 2493 ft 68 kts 176°
2026-04-26 20:09 52.85711 -3.40365 2505 ft 67 kts 276°
2026-04-26 20:09 52.86041 -3.40771 2487 ft 67 kts 13°
2026-04-26 20:10 52.86109 -3.40173 2445 ft 68 kts 159°
2026-04-26 20:10 52.85905 -3.40603 2464 ft 66 kts 306°
2026-04-26 20:10 52.86283 -3.41052 2518 ft 67 kts 330°
2026-04-26 20:10 52.86746 -3.41169 2514 ft 72 kts 31°
2026-04-26 20:11 52.86697 -3.40547 2497 ft 66 kts 167°
2026-04-26 20:11 52.86422 -3.40962 2476 ft 67 kts 294°
2026-04-26 20:11 52.86755 -3.40850 2459 ft 68 kts 92°
2026-04-26 20:12 52.86446 -3.39452 2531 ft 68 kts 79°
2026-04-26 20:12 52.86612 -3.38715 2499 ft 71 kts 39°
2026-04-26 20:12 52.86984 -3.38916 2494 ft 66 kts 279°
2026-04-26 20:12 52.86669 -3.39308 2466 ft 72 kts 162°
2026-04-26 20:13 52.86457 -3.38645 2531 ft 67 kts 86°
2026-04-26 20:13 52.86708 -3.38058 2525 ft 67 kts
2026-04-26 20:13 52.86933 -3.38371 2244 ft 38 kts 248°
2026-04-26 20:13 52.86739 -3.38582 2173 ft 28 kts 210°
2026-04-26 20:14 52.86586 -3.38672 2103 ft 13 kts 212°
2026-04-26 20:14 52.86569 -3.38699 2093 ft 2 kts 225°
2026-04-26 20:14 52.86566 -3.38707 2091 ft 3 kts 225°
2026-04-26 20:15 52.86548 -3.38726 2127 ft 5 kts 221°
2026-04-26 20:15 52.86527 -3.38786 2084 ft 5 kts 221°
2026-04-26 20:15 52.86516 -3.38790 2066 ft 1 kts 222°
2026-04-26 20:15 52.86486 -3.38788 2126 ft 21 kts 217°
2026-04-26 20:16 52.86107 -3.38901 2258 ft 89 kts 193°
2026-04-26 20:16 52.85332 -3.38644 2226 ft 136 kts 138°
2026-04-26 20:16 52.85265 -3.37145 2369 ft 147 kts 55°
2026-04-26 20:16 52.86194 -3.36448 2528 ft 152 kts
2026-04-26 20:17 52.87252 -3.36430 2751 ft 152 kts
2026-04-26 20:17 52.88305 -3.36252 2939 ft 155 kts 19°
2026-04-26 20:17 52.89227 -3.35344 3056 ft 152 kts 33°
2026-04-26 20:17 52.89835 -3.34728 3034 ft 153 kts 33°
2026-04-26 20:18 52.91044 -3.33463 3004 ft 153 kts 33°
2026-04-26 20:18 52.91935 -3.32506 2992 ft 152 kts 32°
2026-04-26 20:18 52.92908 -3.31785 2998 ft 151 kts 23°
2026-04-26 20:18 52.93887 -3.31039 2904 ft 160 kts 24°
2026-04-26 20:19 52.94921 -3.30259 2954 ft 164 kts 24°
2026-04-26 20:19 52.95974 -3.29465 3004 ft 164 kts 24°
2026-04-26 20:19 52.97024 -3.28670 3021 ft 164 kts 24°
2026-04-26 20:19 52.98067 -3.27884 3043 ft 162 kts 24°
2026-04-26 20:20 52.99090 -3.27118 3027 ft 160 kts 24°
2026-04-26 20:20 53.00105 -3.26351 2987 ft 159 kts 24°
2026-04-26 20:20 53.01118 -3.25569 2960 ft 160 kts 24°
2026-04-26 20:20 53.02140 -3.24837 2959 ft 160 kts 20°
2026-04-26 20:21 53.03182 -3.24169 2950 ft 161 kts 24°
2026-04-26 20:21 53.04235 -3.23429 2968 ft 162 kts 22°
2026-04-26 20:21 53.05288 -3.22692 2982 ft 163 kts 22°
2026-04-26 20:21 53.06220 -3.22045 2999 ft 163 kts 22°
2026-04-26 20:22 53.07354 -3.21259 3014 ft 162 kts 22°
2026-04-26 20:22 53.08412 -3.20524 3012 ft 162 kts 22°
2026-04-26 20:22 53.09442 -3.19798 3004 ft 161 kts 22°
2026-04-26 20:22 53.10479 -3.19053 2966 ft 162 kts 22°
2026-04-26 20:23 53.11501 -3.18297 2894 ft 161 kts 22°
2026-04-26 20:23 53.12526 -3.17537 2813 ft 161 kts 22°
2026-04-26 20:23 53.13556 -3.16775 2728 ft 160 kts 22°
2026-04-26 20:23 53.14574 -3.16026 2643 ft 159 kts 22°
2026-04-26 20:24 53.15591 -3.15282 2532 ft 158 kts 22°
2026-04-26 20:24 53.16600 -3.14549 2400 ft 158 kts 22°
2026-04-26 20:24 53.17614 -3.13813 2261 ft 158 kts 22°
2026-04-26 20:24 53.18618 -3.13086 2141 ft 158 kts 22°
2026-04-26 20:25 53.19624 -3.12345 2026 ft 157 kts 22°
2026-04-26 20:25 53.20292 -3.11847 1950 ft 157 kts 22°
2026-04-26 20:25 53.21629 -3.10837 1802 ft 157 kts 22°
2026-04-26 20:25 53.22630 -3.10077 1690 ft 157 kts 22°
2026-04-26 20:26 53.23631 -3.09324 1583 ft 156 kts 22°
2026-04-26 20:26 53.24636 -3.08597 1497 ft 156 kts 23°
2026-04-26 20:26 53.25637 -3.07880 1475 ft 155 kts 22°
2026-04-26 20:26 53.26624 -3.07157 1479 ft 155 kts 22°
2026-04-26 20:27 53.27620 -3.06418 1493 ft 155 kts 22°
2026-04-26 20:27 53.28599 -3.05697 1500 ft 155 kts 22°
2026-04-26 20:27 53.29606 -3.04966 1503 ft 155 kts 22°
2026-04-26 20:27 53.30595 -3.04251 1511 ft 155 kts 22°
2026-04-26 20:28 53.31586 -3.03530 1511 ft 155 kts 22°
2026-04-26 20:28 53.32581 -3.02804 1517 ft 154 kts 22°
2026-04-26 20:28 53.33567 -3.02059 1488 ft 152 kts 22°
2026-04-26 20:28 53.34523 -3.01318 1406 ft 151 kts 22°
2026-04-26 20:29 53.35486 -3.00561 1287 ft 151 kts 22°
2026-04-26 20:29 53.36443 -2.99812 1194 ft 152 kts 22°
2026-04-26 20:29 53.37408 -2.99059 1130 ft 150 kts 22°
2026-04-26 20:29 53.38312 -2.98357 1197 ft 135 kts 21°
2026-04-26 20:30 53.39151 -2.97721 1106 ft 130 kts 19°
2026-04-26 20:30 53.39996 -2.97181 1035 ft 130 kts 20°
2026-04-26 20:30 53.40859 -2.96664 1026 ft 130 kts 16°
2026-04-26 20:30 53.41686 -2.96061 1022 ft 129 kts 19°
2026-04-26 20:31 53.42546 -2.95700 1007 ft 128 kts
2026-04-26 20:31 53.43443 -2.95543 1008 ft 128 kts
2026-04-26 20:31 53.44334 -2.95386 1009 ft 127 kts
2026-04-26 20:31 53.45214 -2.95226 1003 ft 128 kts
2026-04-26 20:32 53.46080 -2.94867 872 ft 131 kts 38°
2026-04-26 20:32 53.46478 -2.93608 750 ft 117 kts 70°
2026-04-26 20:32 53.46507 -2.92277 652 ft 121 kts 124°
2026-04-26 20:32 53.45783 -2.91979 680 ft 114 kts 213°
2026-04-26 20:33 53.45582 -2.93128 696 ft 111 kts 295°
2026-04-26 20:33 53.46246 -2.93574 754 ft 110 kts 17°
2026-04-26 20:33 53.46572 -2.92536 647 ft 111 kts 111°
2026-04-26 20:33 53.46084 -2.91939 384 ft 69 kts 234°
2026-04-26 20:34 53.45931 -2.92444 246 ft 40 kts 249°
2026-04-26 20:34 53.45857 -2.92730 109 ft 10 kts 143°
2026-04-26 20:34 53.45853 -2.92691 74 ft 2 kts 89°